Time,TemperatureF,DewpointF,PressureIn,WindDirection,WindDirectionDegrees,WindSpeedMPH,WindSpeedGustMPH,Humidity,HourlyPrecipIn,Conditions,Clouds,dailyrainin,SoftwareType,DateUTC
2013-01-15 00:03:00,49.0,47.0,30.24,NNE,32,2.0,8.0,92,0.11,,,0.50,,2013-01-15 05:03:00,
2013-01-15 00:12:00,49.0,47.0,30.24,NNE,32,2.0,8.0,92,0.11,,,0.50,,2013-01-15 05:12:00,
2013-01-15 00:22:00,49.0,46.0,30.24,NNW,346,0.0,6.0,91,0.11,,,0.52,,2013-01-15 05:22:00,
2013-01-15 00:33:00,49.0,47.0,30.24,NNE,13,1.0,5.0,92,0.10,,,0.54,,2013-01-15 05:33:00,
2013-01-15 00:42:00,49.0,47.0,30.24,NNE,13,1.0,5.0,92,0.10,,,0.54,,2013-01-15 05:42:00,
2013-01-15 00:53:00,49.0,47.0,30.22,NE,41,1.0,2.0,92,0.10,,,0.57,,2013-01-15 05:53:00,
2013-01-15 01:02:00,49.0,47.0,30.22,NNE,16,0.0,4.0,93,0.09,,,0.59,,2013-01-15 06:02:00,
2013-01-15 01:12:00,49.0,47.0,30.22,NNE,16,0.0,4.0,93,0.09,,,0.59,,2013-01-15 06:12:00,
2013-01-15 01:22:00,48.0,46.0,30.22,East,96,1.0,4.0,93,0.09,,,0.61,,2013-01-15 06:22:00,
2013-01-15 01:33:00,48.0,46.0,30.22,NNW,345,0.0,4.0,93,0.08,,,0.62,,2013-01-15 06:33:00,
2013-01-15 01:43:00,48.0,46.0,30.22,NNW,345,0.0,4.0,93,0.08,,,0.62,,2013-01-15 06:43:00,
2013-01-15 01:53:00,48.0,46.0,30.22,SE,140,3.0,5.0,93,0.06,,,0.63,,2013-01-15 06:53:00,
2013-01-15 02:02:00,47.0,45.0,30.23,East,80,3.0,7.0,92,0.06,,,0.65,,2013-01-15 07:02:00,
2013-01-15 02:12:00,47.0,45.0,30.23,East,80,3.0,7.0,92,0.06,,,0.65,,2013-01-15 07:12:00,
2013-01-15 02:22:00,47.0,45.0,30.22,SE,127,3.0,5.0,93,0.06,,,0.67,,2013-01-15 07:22:00,
2013-01-15 02:33:00,47.0,45.0,30.22,SE,136,4.0,7.0,93,0.07,,,0.69,,2013-01-15 07:33:00,
2013-01-15 02:42:00,47.0,45.0,30.22,SE,136,4.0,7.0,93,0.07,,,0.69,,2013-01-15 07:42:00,
2013-01-15 02:53:00,47.0,45.0,30.22,SSE,148,3.0,12.0,93,0.08,,,0.71,,2013-01-15 07:53:00,
2013-01-15 03:02:00,46.0,44.0,30.21,East,100,4.0,8.0,93,0.08,,,0.73,,2013-01-15 08:02:00,
2013-01-15 03:12:00,46.0,44.0,30.21,East,100,4.0,8.0,93,0.08,,,0.73,,2013-01-15 08:12:00,
2013-01-15 03:22:00,46.0,44.0,30.21,SE,128,6.0,9.0,93,0.09,,,0.76,,2013-01-15 08:22:00,
2013-01-15 03:33:00,46.0,44.0,30.22,SSE,153,5.0,8.0,93,0.08,,,0.77,,2013-01-15 08:33:00,
2013-01-15 03:42:00,46.0,44.0,30.22,SSE,153,5.0,8.0,93,0.08,,,0.77,,2013-01-15 08:42:00,
2013-01-15 03:53:00,45.0,43.0,30.22,ESE,106,4.0,7.0,93,0.08,,,0.77,,2013-01-15 08:53:00,
2013-01-15 04:02:00,45.0,43.0,30.20,ESE,115,5.0,8.0,93,0.08,,,0.79,,2013-01-15 09:02:00,
2013-01-15 04:12:00,45.0,43.0,30.20,ESE,115,5.0,8.0,93,0.08,,,0.79,,2013-01-15 09:12:00,
2013-01-15 04:22:00,45.0,43.0,30.19,East,94,3.0,8.0,93,0.07,,,0.81,,2013-01-15 09:22:00,
2013-01-15 04:33:00,44.0,42.0,30.19,SE,146,6.0,12.0,93,0.08,,,0.83,,2013-01-15 09:33:00,
2013-01-15 04:42:00,44.0,42.0,30.19,SE,146,6.0,12.0,93,0.08,,,0.83,,2013-01-15 09:42:00,
2013-01-15 04:52:00,44.0,42.0,30.19,ESE,103,4.0,8.0,93,0.07,,,0.83,,2013-01-15 09:52:00,
2013-01-15 05:02:00,44.0,42.0,30.19,East,101,5.0,8.0,93,0.06,,,0.84,,2013-01-15 10:02:00,
2013-01-15 05:12:00,44.0,42.0,30.19,East,101,5.0,8.0,93,0.06,,,0.84,,2013-01-15 10:12:00,
2013-01-15 05:22:00,44.0,42.0,30.20,SSE,148,4.0,7.0,93,0.06,,,0.86,,2013-01-15 10:22:00,
2013-01-15 05:32:00,43.0,41.0,30.20,ESE,121,3.0,8.0,93,0.06,,,0.87,,2013-01-15 10:32:00,
2013-01-15 05:42:00,43.0,41.0,30.20,ESE,121,3.0,8.0,93,0.06,,,0.87,,2013-01-15 10:42:00,
2013-01-15 05:52:00,43.0,41.0,30.20,ESE,121,4.0,7.0,93,0.05,,,0.87,,2013-01-15 10:52:00,
2013-01-15 06:02:00,43.0,41.0,30.20,SE,136,4.0,6.0,93,0.06,,,0.89,,2013-01-15 11:02:00,
2013-01-15 06:12:00,43.0,41.0,30.20,SE,136,4.0,6.0,93,0.06,,,0.89,,2013-01-15 11:12:00,
2013-01-15 06:23:00,43.0,41.0,30.21,SE,129,2.0,7.0,93,0.04,,,0.89,,2013-01-15 11:23:00,
2013-01-15 06:33:00,43.0,41.0,30.21,SSE,152,5.0,7.0,93,0.05,,,0.91,,2013-01-15 11:33:00,
2013-01-15 06:43:00,43.0,41.0,30.21,SSE,152,5.0,7.0,93,0.05,,,0.91,,2013-01-15 11:43:00,
2013-01-15 06:53:00,43.0,41.0,30.22,SSE,154,5.0,9.0,93,0.05,,,0.92,,2013-01-15 11:53:00,
2013-01-15 07:03:00,43.0,41.0,30.23,SE,142,2.0,5.0,93,0.05,,,0.94,,2013-01-15 12:03:00,
2013-01-15 07:12:00,43.0,41.0,30.23,SE,142,2.0,5.0,93,0.05,,,0.94,,2013-01-15 12:12:00,
2013-01-15 07:22:00,43.0,41.0,30.22,SE,134,7.0,8.0,93,0.06,,,0.95,,2013-01-15 12:22:00,
2013-01-15 07:33:00,43.0,41.0,30.24,SSE,150,2.0,5.0,93,0.06,,,0.97,,2013-01-15 12:33:00,
2013-01-15 07:43:00,43.0,41.0,30.24,SSE,150,2.0,5.0,93,0.06,,,0.97,,2013-01-15 12:43:00,
2013-01-15 07:53:00,43.0,41.0,30.24,SE,136,2.0,6.0,93,0.06,,,0.98,,2013-01-15 12:53:00,
2013-01-15 08:03:00,43.0,41.0,30.27,NNE,14,2.0,4.0,94,0.05,,,0.99,,2013-01-15 13:03:00,
2013-01-15 08:12:00,43.0,41.0,30.27,NNE,14,2.0,4.0,94,0.05,,,0.99,,2013-01-15 13:12:00,
2013-01-15 08:23:00,43.0,41.0,30.27,SSE,150,4.0,5.0,92,0.05,,,1.00,,2013-01-15 13:23:00,
2013-01-15 08:33:00,43.0,41.0,30.26,South,169,4.0,8.0,93,0.04,,,1.01,,2013-01-15 13:33:00,
2013-01-15 08:43:00,43.0,41.0,30.26,South,169,4.0,8.0,93,0.04,,,1.01,,2013-01-15 13:43:00,
2013-01-15 08:53:00,43.0,41.0,30.24,SE,137,4.0,6.0,93,0.05,,,1.03,,2013-01-15 13:53:00,
2013-01-15 09:03:00,43.0,41.0,30.25,SE,144,2.0,6.0,92,0.05,,,1.04,,2013-01-15 14:03:00,
2013-01-15 09:13:00,43.0,41.0,30.25,SE,144,2.0,6.0,92,0.05,,,1.04,,2013-01-15 14:13:00,
2013-01-15 09:23:00,43.0,41.0,30.26,SE,139,1.0,6.0,92,0.05,,,1.05,,2013-01-15 14:23:00,
2013-01-15 09:33:00,43.0,41.0,30.27,North,9,1.0,3.0,92,0.05,,,1.06,,2013-01-15 14:33:00,
2013-01-15 09:43:00,43.0,41.0,30.27,North,9,1.0,3.0,92,0.05,,,1.06,,2013-01-15 14:43:00,
2013-01-15 09:54:00,43.0,41.0,30.27,North,360,1.0,3.0,92,0.04,,,1.06,,2013-01-15 14:54:00,
2013-01-15 10:03:00,43.0,41.0,30.27,SSE,158,3.0,5.0,92,0.04,,,1.07,,2013-01-15 15:03:00,
2013-01-15 10:12:00,43.0,41.0,30.27,SSE,158,3.0,5.0,92,0.04,,,1.07,,2013-01-15 15:12:00,
2013-01-15 10:23:00,43.0,41.0,30.26,SE,144,4.0,6.0,93,0.04,,,1.08,,2013-01-15 15:23:00,
2013-01-15 10:33:00,43.0,41.0,30.26,SE,129,2.0,5.0,93,0.03,,,1.08,,2013-01-15 15:33:00,
2013-01-15 10:43:00,43.0,41.0,30.26,SE,129,2.0,5.0,93,0.03,,,1.08,,2013-01-15 15:43:00,
2013-01-15 10:53:00,43.0,41.0,30.25,ESE,104,3.0,5.0,93,0.02,,,1.06,,2013-01-15 15:53:00,
2013-01-15 11:03:00,43.0,41.0,30.25,East,87,1.0,6.0,93,0.02,,,1.07,,2013-01-15 16:03:00,
2013-01-15 11:12:00,43.0,41.0,30.25,East,87,1.0,6.0,93,0.02,,,1.07,,2013-01-15 16:12:00,
2013-01-15 11:23:00,43.0,41.0,30.25,ESE,105,3.0,6.0,93,0.02,,,1.08,,2013-01-15 16:23:00,
2013-01-15 11:33:00,43.0,41.0,30.25,SE,141,4.0,6.0,93,0.03,,,1.09,,2013-01-15 16:33:00,
2013-01-15 11:43:00,43.0,41.0,30.25,SE,141,4.0,6.0,93,0.03,,,1.09,,2013-01-15 16:43:00,
2013-01-15 11:53:00,43.0,41.0,30.24,SE,137,3.0,7.0,93,0.04,,,1.10,,2013-01-15 16:53:00,
2013-01-15 12:03:00,43.0,41.0,30.24,SSE,153,3.0,7.0,93,0.04,,,1.11,,2013-01-15 17:03:00,
2013-01-15 12:12:00,43.0,41.0,30.24,SSE,153,3.0,7.0,93,0.04,,,1.11,,2013-01-15 17:12:00,
2013-01-15 12:23:00,43.0,41.0,30.22,SSE,159,4.0,7.0,93,0.04,,,1.12,,2013-01-15 17:23:00,
2013-01-15 12:33:00,43.0,41.0,30.23,SSE,153,2.0,5.0,93,0.03,,,1.12,,2013-01-15 17:33:00,
2013-01-15 12:43:00,43.0,41.0,30.23,SSE,153,2.0,5.0,93,0.03,,,1.12,,2013-01-15 17:43:00,
2013-01-15 12:53:00,43.0,41.0,30.22,SSE,153,3.0,6.0,93,0.04,,,1.14,,2013-01-15 17:53:00,
2013-01-15 13:03:00,43.0,41.0,30.21,SSE,147,4.0,6.0,93,0.05,,,1.15,,2013-01-15 18:03:00,
2013-01-15 13:13:00,43.0,41.0,30.21,SSE,147,4.0,6.0,93,0.05,,,1.15,,2013-01-15 18:13:00,
2013-01-15 13:23:00,43.0,41.0,30.20,SE,141,3.0,7.0,94,0.04,,,1.16,,2013-01-15 18:23:00,
2013-01-15 13:33:00,43.0,41.0,30.19,SE,139,4.0,7.0,93,0.06,,,1.18,,2013-01-15 18:33:00,
2013-01-15 13:43:00,43.0,41.0,30.19,SE,139,4.0,7.0,93,0.06,,,1.18,,2013-01-15 18:43:00,
2013-01-15 13:54:00,43.0,41.0,30.20,SE,129,2.0,8.0,93,0.05,,,1.19,,2013-01-15 18:54:00,
2013-01-15 14:03:00,43.0,41.0,30.19,SE,138,5.0,7.0,93,0.05,,,1.20,,2013-01-15 19:03:00,
2013-01-15 14:13:00,43.0,41.0,30.19,SE,138,5.0,7.0,93,0.05,,,1.20,,2013-01-15 19:13:00,
2013-01-15 14:23:00,43.0,41.0,30.18,SE,144,4.0,11.0,93,0.06,,,1.22,,2013-01-15 19:23:00,
2013-01-15 14:33:00,43.0,41.0,30.19,SE,139,4.0,7.0,93,0.05,,,1.23,,2013-01-15 19:33:00,
2013-01-15 14:43:00,43.0,41.0,30.19,SE,139,4.0,7.0,93,0.05,,,1.23,,2013-01-15 19:43:00,
2013-01-15 14:53:00,43.0,41.0,30.18,ESE,123,4.0,7.0,93,0.06,,,1.24,,2013-01-15 19:53:00,
2013-01-15 15:03:00,43.0,41.0,30.19,ESE,112,4.0,8.0,93,0.06,,,1.25,,2013-01-15 20:03:00,
2013-01-15 15:12:00,43.0,41.0,30.19,ESE,112,4.0,8.0,93,0.06,,,1.25,,2013-01-15 20:12:00,
2013-01-15 15:23:00,43.0,41.0,30.20,East,89,1.0,4.0,93,0.06,,,1.27,,2013-01-15 20:23:00,
2013-01-15 15:33:00,42.0,40.0,30.19,SE,126,6.0,9.0,93,0.07,,,1.29,,2013-01-15 20:33:00,
2013-01-15 15:43:00,42.0,40.0,30.19,SE,126,6.0,9.0,93,0.07,,,1.29,,2013-01-15 20:43:00,
2013-01-15 15:53:00,42.0,40.0,30.19,SE,142,4.0,8.0,93,0.06,,,1.27,,2013-01-15 20:53:00,
2013-01-15 16:03:00,42.0,40.0,30.19,SSE,156,5.0,9.0,93,0.07,,,1.29,,2013-01-15 21:03:00,
2013-01-15 16:13:00,42.0,40.0,30.19,SSE,156,5.0,9.0,93,0.07,,,1.29,,2013-01-15 21:13:00,
2013-01-15 16:23:00,42.0,40.0,30.20,SE,141,6.0,9.0,94,0.07,,,1.31,,2013-01-15 21:23:00,
2013-01-15 16:33:00,42.0,40.0,30.19,SE,139,5.0,8.0,94,0.07,,,1.33,,2013-01-15 21:33:00,
2013-01-15 16:43:00,42.0,40.0,30.19,SE,139,5.0,8.0,94,0.07,,,1.33,,2013-01-15 21:43:00,
2013-01-15 16:53:00,42.0,40.0,30.19,ESE,111,3.0,7.0,94,0.07,,,1.34,,2013-01-15 21:53:00,
2013-01-15 17:03:00,41.0,39.0,30.20,SSE,153,5.0,8.0,94,0.07,,,1.36,,2013-01-15 22:03:00,
2013-01-15 17:12:00,41.0,39.0,30.20,SSE,153,5.0,8.0,94,0.07,,,1.36,,2013-01-15 22:12:00,
2013-01-15 17:23:00,41.0,39.0,30.20,SE,137,5.0,9.0,94,0.07,,,1.38,,2013-01-15 22:23:00,
2013-01-15 17:33:00,41.0,39.0,30.20,SSE,154,3.0,6.0,94,0.08,,,1.40,,2013-01-15 22:33:00,
2013-01-15 17:43:00,41.0,39.0,30.20,SSE,154,3.0,6.0,94,0.08,,,1.40,,2013-01-15 22:43:00,
2013-01-15 17:53:00,41.0,39.0,30.19,SE,136,5.0,7.0,94,0.08,,,1.39,,2013-01-15 22:53:00,
2013-01-15 18:03:00,41.0,39.0,30.20,SSE,155,5.0,8.0,94,0.07,,,1.40,,2013-01-15 23:03:00,
2013-01-15 18:13:00,41.0,39.0,30.20,SSE,155,5.0,8.0,94,0.07,,,1.40,,2013-01-15 23:13:00,
2013-01-15 18:23:00,40.0,38.0,30.19,SE,141,1.0,8.0,94,0.07,,,1.42,,2013-01-15 23:23:00,
2013-01-15 18:33:00,40.0,38.0,30.19,SSE,160,2.0,7.0,94,0.07,,,1.44,,2013-01-15 23:33:00,
2013-01-15 18:43:00,40.0,38.0,30.19,SSE,160,2.0,7.0,94,0.07,,,1.44,,2013-01-15 23:43:00,
2013-01-15 18:53:00,40.0,38.0,30.19,SE,144,3.0,8.0,94,0.07,,,1.45,,2013-01-15 23:53:00,
2013-01-15 19:03:00,40.0,38.0,30.18,SE,137,5.0,9.0,93,0.08,,,1.47,,2013-01-16 00:03:00,
2013-01-15 19:13:00,40.0,38.0,30.18,SE,137,5.0,9.0,93,0.08,,,1.47,,2013-01-16 00:13:00,
2013-01-15 19:22:00,40.0,38.0,30.18,ESE,118,3.0,7.0,93,0.08,,,1.49,,2013-01-16 00:22:00,
2013-01-15 19:33:00,40.0,38.0,30.18,SE,138,4.0,8.0,93,0.07,,,1.50,,2013-01-16 00:33:00,
2013-01-15 19:43:00,40.0,38.0,30.18,SE,138,4.0,8.0,93,0.07,,,1.50,,2013-01-16 00:43:00,
2013-01-15 19:53:00,40.0,38.0,30.21,South,178,4.0,7.0,94,0.07,,,1.49,,2013-01-16 00:53:00,
2013-01-15 20:03:00,40.0,38.0,30.19,SE,132,5.0,11.0,93,0.07,,,1.51,,2013-01-16 01:03:00,
2013-01-15 20:12:00,40.0,38.0,30.19,SE,132,5.0,11.0,93,0.07,,,1.51,,2013-01-16 01:12:00,
2013-01-15 20:22:00,39.0,37.0,30.18,South,169,5.0,9.0,94,0.08,,,1.54,,2013-01-16 01:22:00,
2013-01-15 20:33:00,39.0,37.0,30.16,East,99,1.0,8.0,94,0.09,,,1.56,,2013-01-16 01:33:00,
2013-01-15 20:43:00,39.0,37.0,30.16,East,99,1.0,8.0,94,0.09,,,1.56,,2013-01-16 01:43:00,
2013-01-15 20:53:00,39.0,37.0,30.16,SSE,150,2.0,8.0,94,0.09,,,1.52,,2013-01-16 01:53:00,
2013-01-15 21:03:00,39.0,37.0,30.16,SSE,148,3.0,5.0,94,0.09,,,1.54,,2013-01-16 02:03:00,
2013-01-15 21:12:00,39.0,37.0,30.16,SSE,148,3.0,5.0,94,0.09,,,1.54,,2013-01-16 02:12:00,
2013-01-15 21:23:00,39.0,37.0,30.14,SE,131,2.0,7.0,94,0.09,,,1.56,,2013-01-16 02:23:00,
2013-01-15 21:33:00,39.0,37.0,30.14,ESE,123,4.0,7.0,94,0.08,,,1.58,,2013-01-16 02:33:00,
2013-01-15 21:43:00,39.0,37.0,30.14,ESE,123,4.0,7.0,94,0.08,,,1.58,,2013-01-16 02:43:00,
2013-01-15 21:53:00,39.0,37.0,30.14,SSE,164,4.0,7.0,94,0.08,,,1.55,,2013-01-16 02:53:00,
2013-01-15 22:03:00,39.0,37.0,30.14,SE,140,4.0,6.0,94,0.08,,,1.57,,2013-01-16 03:03:00,
2013-01-15 22:12:00,39.0,37.0,30.14,SE,140,4.0,6.0,94,0.08,,,1.57,,2013-01-16 03:12:00,
2013-01-15 22:22:00,39.0,37.0,30.14,SE,138,5.0,7.0,94,0.08,,,1.59,,2013-01-16 03:22:00,
2013-01-15 22:33:00,39.0,37.0,30.13,SSE,147,3.0,7.0,94,0.08,,,1.61,,2013-01-16 03:33:00,
2013-01-15 22:43:00,39.0,37.0,30.13,SSE,147,3.0,7.0,94,0.08,,,1.61,,2013-01-16 03:43:00,
2013-01-15 22:53:00,39.0,37.0,30.13,ESE,117,4.0,7.0,94,0.08,,,1.57,,2013-01-16 03:53:00,
2013-01-15 23:02:00,39.0,37.0,30.13,SE,128,4.0,7.0,94,0.07,,,1.58,,2013-01-16 04:02:00,
2013-01-15 23:12:00,39.0,37.0,30.13,SE,128,4.0,7.0,94,0.07,,,1.58,,2013-01-16 04:12:00,
2013-01-15 23:22:00,38.0,36.0,30.13,ESE,117,5.0,7.0,94,0.07,,,1.60,,2013-01-16 04:22:00,
2013-01-15 23:33:00,38.0,36.0,30.12,SE,142,3.0,7.0,94,0.07,,,1.62,,2013-01-16 04:33:00,
2013-01-15 23:42:00,38.0,36.0,30.12,SE,142,3.0,7.0,94,0.07,,,1.62,,2013-01-16 04:42:00,
2013-01-15 23:53:00,38.0,36.0,30.12,SSE,157,4.0,6.0,94,0.08,,,1.54,,2013-01-16 04:53:00,